EHI
0 0 0 0 0 0 0 0 0 0 1 1 2 4 9 12 14 16 24 31 34 38 48 55 55 53 56 57 57 55 53 50 48 45 42 39 37 33 32 29 24 20 20 21
0 0 0 0 0 0 0 0 0 0 0 0 1 3 8 13 16 18 24 31 35 40 48 54 54 52 52 53 52 51 50 48 45 44 43 41 38 34 31 29 25 21 18 16
0 0 0 0 0 0 0 0 0 0 0 0 0 2 8 15 18 19 25 33 38 40 45 49 50 50 50 49 47 46 47 46 43 41 39 37 34 30 28 27 25 19 14 11
0 0 0 0 0 0 0 0 0 0 0 0 0 2 7 14 17 19 24 31 35 36 38 41 42 44 46 46 43 43 46 46 44 41 36 31 27 25 24 23 21 16 12 8
0 0 0 0 0 0 0 0 0 0 0 0 0 1 4 9 13 18 23 27 29 30 32 35 36 36 39 39 37 38 42 44 43 41 36 31 26 24 21 18 16 14 10 6
0 0 0 0 0 0 0 0 0 0 0 0 0 1 3 7 11 16 21 25 26 26 27 30 32 31 32 32 31 31 34 36 36 36 35 30 24 20 17 14 11 9 7 5
0 0 0 0 0 0 0 0 0 0 0 0 0 2 6 9 12 15 18 21 21 21 23 26 27 27 27 28 28 28 29 30 29 29 28 24 18 13 12 10 7 6 5 4
0 0 0 0 0 0 0 0 0 0 0 0 1 4 7 10 11 11 13 16 16 16 21 24 26 25 24 24 27 27 27 27 26 24 22 19 12 8 7 7 6 5 3 2
0 0 0 0 0 0 0 0 0 0 0 0 1 4 5 5 6 7 9 12 13 15 21 26 26 24 22 22 24 25 25 24 23 21 18 14 9 6 5 5 5 3 2 1
0 0 0 0 0 0 0 0 0 0 0 0 1 1 2 2 3 6 9 11 14 18 23 26 24 22 20 20 20 21 22 21 20 18 14 9 6 5 4 3 1 1 0 0
0 0 0 0 0 0 0 0 0 0 0 0 0 0 1 3 6 9 12 14 16 20 22 22 21 19 17 17 17 18 18 17 15 13 10 6 4 4 3 1 0 0 0 0
0 0 0 0 0 0 0 0 0 0 0 0 0 0 3 7 11 13 14 15 16 18 18 17 17 15 14 14 14 14 13 12 10 9 7 5 3 3 2 1 0 0 0 0
0 0 0 0 0 0 0 0 0 0 0 0 0 1 5 10 12 14 15 15 15 16 15 14 14 12 11 11 10 9 8 8 7 6 5 3 2 1 1 0 0 0 0 0
0 0 0 0 0 0 0 0 0 0 0 0 0 1 4 9 13 14 14 14 13 14 14 15 14 12 9 8 7 6 6 6 6 5 3 2 2 1 1 1 1 1 0 0
0 0 0 0 0 0 0 0 0 0 0 0 0 1 4 9 14 15 13 12 12 13 14 15 14 12 9 6 5 5 5 6 6 4 3 2 1 1 1 2 2 1 0 0
0 0 0 0 0 0 0 0 0 0 0 0 1 3 6 10 16 17 14 11 11 13 12 12 12 11 7 5 4 5 4 5 5 3 2 1 0 0 1 2 2 1 0 0
0 0 0 0 0 0 0 0 0 0 0 1 2 4 6 11 17 18 12 8 9 11 9 8 8 8 5 3 3 3 3 3 3 2 1 0 0 0 1 1 1 0 0 0
0 0 0 0 0 0 0 0 0 0 0 2 3 5 7 10 14 14 9 6 7 8 8 8 7 6 4 2 1 2 3 3 2 1 0 0 0 0 0 0 0 0 0 0
0 0 0 0 0 0 0 0 0 0 0 1 4 6 7 8 9 8 7 6 6 7 9 10 8 6 4 2 0 1 2 3 2 1 0 0 0 0 0 0 0 0 0 0
0 0 0 0 0 0 0 0 0 0 0 1 3 5 6 6 5 7 8 9 8 9 10 10 8 7 6 4 2 1 2 2 1 0 0 0 0 0 0 0 0 0 0 0
0 0 0 0 0 0 0 0 1 1 1 3 4 5 5 5 6 7 9 10 9 8 8 8 9 9 8 5 2 1 1 1 0 0 0 0 0 0 0 0 0 0 0 0
0 0 0 0 0 0 0 0 1 2 3 5 5 6 7 8 7 6 6 7 6 6 5 6 7 8 6 3 1 0 0 0 0 0 0 0 0 0 0 0 0 0 0 0
0 0 0 0 0 1 1 1 2 2 3 5 6 6 7 7 5 3 4 4 4 3 2 3 4 4 3 1 0 0 0 0 0 0 0 0 0 0 0 0 0 0 0 0
0 0 0 0 0 1 1 2 2 1 2 4 5 4 4 3 2 3 3 3 2 1 1 2 2 2 1 0 0 0 0 0 0 0 0 0 0 0 0 0 0 0 0 0
0 0 0 0 0 0 1 1 1 1 1 2 2 1 1 1 1 2 3 2 1 0 0 1 1 1 0 0 0 0 0 0 1 1 0 0 0 0 1 1 0 0 0 0
0 0 0 0 0 0 0 0 0 0 1 1 1 0 0 1 2 2 2 1 0 0 0 0 0 0 0 0 0 0 0 1 2 2 1 0 0 1 2 2 1 0 0 0
Wind_Speed
10 10 9 9 10 10 9 10 7 4 4 7 7 5 6 7 7 7 7 6 6 7 7 6 7 6 6 6 5 4 3 3 2 2 2 2 2 1 1 1 1 1 0 1
10 11 9 7 7 10 9 10 7 4 4 4 5 7 8 9 7 6 7 7 8 7 7 7 6 6 5 5 4 4 3 3 2 2 1 1 1 1 1 1 1 0 0 1
9 2 3 7 8 9 10 8 6 6 6 7 9 8 7 6 5 5 5 4 5 6 7 7 6 5 4 4 4 3 3 3 2 1 1 1 1 1 1 1 1 1 1 0
7 4 6 8 8 9 9 7 6 8 10 7 9 8 7 7 7 7 6 4 3 5 5 6 6 6 5 4 3 4 4 3 1 1 1 1 1 1 0 0 1 1 1 1
8 4 6 8 7 7 8 8 9 10 11 11 10 9 5 6 7 6 5 5 4 4 5 5 5 5 4 4 4 4 4 3 2 1 1 0 0 0 1 1 2 1 0 1
9 6 6 7 7 7 8 9 11 10 9 11 9 8 6 4 6 7 7 6 6 5 6 6 5 5 4 4 4 4 4 3 2 2 2 1 1 1 1 1 0 0 0 1
8 8 6 6 8 7 7 8 6 6 6 8 5 6 2 0 3 6 7 7 7 5 5 6 6 5 4 4 4 4 5 3 2 2 2 2 1 0 0 0 0 1 1 1
9 6 6 6 7 7 8 10 7 7 8 7 5 5 1 3 5 6 6 7 7 6 5 5 6 6 4 4 4 5 4 3 2 2 2 2 1 0 1 1 1 1 1 1
7 7 5 4 6 8 9 9 9 10 12 10 5 2 3 6 4 5 5 6 7 6 5 5 5 6 5 5 4 4 4 3 3 2 2 1 1 1 1 1 0 1 1 1
8 10 8 8 7 9 8 8 7 7 7 9 7 3 1 5 4 4 4 5 6 6 6 6 6 6 5 5 4 4 3 3 2 2 1 1 1 1 0 0 0 1 1 2
7 8 9 9 8 8 7 7 6 7 7 7 7 3 0 4 5 4 4 5 5 5 6 6 6 6 5 5 4 3 3 2 2 2 1 1 1 1 1 1 1 1 1 1
5 6 9 9 7 7 7 6 6 6 7 7 7 3 1 4 5 4 5 6 6 6 6 6 6 6 5 4 3 2 1 1 1 2 2 1 1 2 2 1 1 1 1 1
6 5 7 7 5 5 7 7 6 6 6 6 7 2 3 4 5 5 4 6 7 6 6 6 6 5 4 3 2 2 1 1 1 2 2 2 1 2 2 2 2 1 1 1
5 7 9 9 8 8 8 9 7 7 7 6 6 3 4 4 5 5 4 6 7 6 5 6 6 5 4 3 2 1 1 1 1 2 2 2 1 1 1 1 2 2 1 1
5 8 10 10 10 10 9 10 8 8 8 8 5 2 3 5 5 5 5 5 6 5 5 6 5 5 4 2 2 1 0 1 1 1 1 2 1 1 1 1 1 1 2 2
4 7 10 11 11 11 10 9 8 7 6 5 3 1 5 5 5 5 5 4 5 5 5 5 5 5 4 2 1 1 1 1 1 1 1 1 1 0 0 0 1 1 2 2
7 7 9 10 11 12 10 7 7 6 4 4 3 2 5 5 6 5 5 5 5 4 4 4 5 4 3 2 1 1 1 1 1 1 1 1 0 0 1 1 2 2 2 1
9 9 7 9 10 11 5 5 4 2 1 1 2 4 4 5 6 5 4 4 5 5 4 4 3 4 3 2 2 2 1 2 2 1 1 1 0 0 1 1 1 1 2 2
10 9 8 8 9 8 5 5 4 2 1 1 3 5 5 7 7 6 5 5 6 5 5 4 3 4 3 2 2 2 2 2 1 1 0 1 1 1 1 1 1 1 1 2
10 8 8 8 9 8 4 2 3 1 2 2 4 5 6 7 4 4 6 6 6 6 5 4 3 4 3 2 2 1 1 2 1 1 1 1 1 1 1 1 1 1 2 2
7 8 10 10 9 6 2 2 3 3 2 3 4 5 4 3 5 8 9 7 7 6 5 4 4 4 3 2 2 1 1 1 1 1 1 0 1 1 1 1 1 1 2 3
7 7 7 7 7 4 1 1 1 3 4 3 4 6 8 10 11 10 9 8 7 6 5 4 3 3 3 2 2 2 1 2 2 1 0 0 0 2 1 1 1 2 2 3
6 3 2 2 1 1 2 3 4 4 4 4 4 8 11 11 10 10 9 8 6 6 5 4 3 4 3 2 2 2 2 2 2 1 0 1 1 1 1 2 2 2 2 2
5 3 3 3 3 3 2 4 4 4 4 6 7 8 10 10 10 10 9 7 6 6 5 4 3 3 3 2 1 2 2 2 1 1 1 1 1 2 2 2 2 2 2 2
7 4 4 4 3 2 2 3 3 5 6 8 8 8 9 10 10 10 8 7 6 6 5 4 3 3 3 2 2 2 2 2 1 1 1 2 2 2 2 1 2 2 1 2
8 5 5 4 3 2 3 4 4 6 7 8 7 7 8 9 9 9 8 7 6 5 5 4 4 3 3 2 2 2 2 2 2 1 2 2 2 2 2 2 1 1 3 3
Wind_Direction
224 235 244 242 245 259 272 274 278 270 229 211 217 205 186 197 188 180 162 152 157 156 145 133 127 131 135 131 137 147 151 148 160 159 181 187 193 172 165 150 129 138 25 352
236 234 249 257 253 266 269 267 269 253 225 248 243 216 201 196 194 173 173 168 165 154 142 135 143 139 130 132 142 148 158 163 175 166 180 180 162 193 166 120 116 123 28 309
255 281 267 269 263 264 264 264 272 281 271 238 246 237 218 194 174 166 164 152 149 156 151 150 147 137 143 144 146 150 148 155 171 174 159 136 147 209 166 137 122 63 339 314
267 264 259 261 263 267 275 278 275 272 270 264 253 252 222 210 185 176 168 158 165 147 146 143 144 149 157 150 143 135 132 140 154 155 154 198 199 194 91 62 91 59 3 358
274 263 264 265 273 279 293 299 283 272 263 268 262 268 243 200 195 183 167 162 159 137 143 148 151 146 140 135 133 125 124 128 138 149 125 225 354 72 68 54 73 63 48 38
279 275 264 278 285 280 287 286 281 277 270 262 268 269 257 225 198 177 172 167 145 143 147 148 144 133 125 123 123 124 120 117 113 105 92 78 62 57 69 50 160 256 140 75
267 251 246 257 270 268 266 272 276 274 265 267 280 267 268 170 143 152 157 151 139 138 139 134 132 126 121 118 115 113 117 110 104 95 83 75 69 31 179 183 70 329 357 71
283 266 236 235 255 270 262 268 270 281 281 277 258 252 202 91 88 103 114 130 137 142 138 128 124 122 118 110 110 103 98 103 108 100 92 74 58 37 50 34 16 2 11 35
291 292 283 265 261 266 270 272 276 274 278 283 261 213 107 96 99 116 118 134 141 139 134 123 115 116 115 108 105 107 106 105 101 93 92 102 88 46 33 35 356 24 20 344
296 293 289 289 267 249 260 283 296 285 293 291 289 293 164 164 180 177 145 137 137 142 133 122 118 114 115 111 103 102 105 99 99 100 86 85 78 53 314 305 35 55 38 28
300 292 285 282 280 282 265 260 279 292 291 289 293 299 129 157 162 161 150 146 141 139 130 123 126 123 122 116 104 102 99 101 111 123 115 74 36 326 340 35 38 52 49 31
308 289 285 286 296 293 279 271 267 272 282 288 290 293 40 118 129 136 134 136 132 126 126 126 122 121 121 112 109 106 120 147 156 141 126 95 43 10 8 26 35 44 62 23
325 298 281 275 277 271 277 272 267 273 274 280 284 272 103 115 114 110 119 128 129 133 137 135 130 132 125 123 127 121 135 157 147 131 124 103 69 31 16 11 4 8 24 345
295 280 284 282 288 292 288 283 276 271 270 272 274 242 162 152 137 134 140 133 134 142 144 139 132 128 132 136 130 131 146 153 139 122 112 107 101 71 42 14 1 358 356 322
270 275 282 284 281 281 283 283 278 272 280 285 285 260 164 151 145 145 139 135 141 145 141 137 136 134 142 143 152 156 116 81 87 100 104 111 118 110 82 6 334 341 346 344
277 277 286 288 288 284 284 286 284 278 277 277 273 73 113 115 129 134 133 146 141 145 144 141 141 142 149 153 159 158 115 108 128 127 106 93 86 49 354 334 322 347 5 358
275 275 283 282 284 284 276 281 281 280 289 299 305 123 135 136 138 141 152 152 145 148 143 139 144 144 148 150 152 160 111 131 140 136 129 138 127 28 18 5 14 9 4 344
258 271 275 278 284 275 287 301 301 310 348 21 134 142 141 128 128 124 127 139 136 139 136 129 126 131 131 143 158 155 144 137 144 152 166 188 105 29 55 35 15 348 335 325
232 245 263 270 271 270 267 274 293 308 290 183 151 139 134 132 136 129 119 119 124 123 115 114 120 127 135 145 153 146 130 133 141 155 131 64 20 29 27 18 347 334 313 303
227 221 243 259 271 272 278 297 330 292 217 151 153 159 158 164 183 134 121 115 113 109 109 116 124 124 125 126 119 127 148 143 136 105 69 65 23 4 322 303 303 312 299 288
232 231 237 249 258 262 273 299 287 268 125 110 150 151 149 131 93 114 120 115 113 113 118 124 123 121 121 126 140 172 174 137 119 115 104 76 46 318 274 280 297 287 290 299
262 252 246 252 254 248 344 303 351 101 108 107 124 129 121 109 113 121 123 121 123 125 126 124 118 116 118 136 163 169 153 130 127 125 99 29 340 310 348 359 296 278 272 278
275 286 313 304 262 105 55 91 122 131 127 121 127 126 125 126 130 129 127 129 134 131 128 129 133 128 132 152 161 155 148 157 158 159 173 298 306 309 305 285 276 278 280 282
261 277 265 256 189 179 171 141 129 121 130 128 129 130 134 135 136 133 135 138 139 135 136 143 147 141 135 147 158 147 154 163 167 173 209 255 259 263 260 259 269 284 311 318
287 277 271 262 218 193 136 104 114 123 132 134 133 134 135 138 139 139 140 142 143 140 147 155 151 141 141 151 150 141 142 151 160 177 250 268 269 271 267 277 302 297 313 302
263 254 254 253 219 225 176 171 156 148 144 139 138 139 139 139 139 139 141 142 146 146 151 154 154 154 153 153 150 148 157 158 162 212 259 274 276 272 263 241 260 288 245 242